Location: Newark
(52.5694°N, 1.3190°W)
Time: 01:09:37
(UTC+00:00)

N. Korean satellite - Pass Details

Date: 01 February 2020
Orbit: 456 x 505 km, 97.2° (Epoch: 27 February)

Event Time Altitude Azimuth Distance (km) Brightness Sun altitude
Rises 05:49:11 0° 16° (NNE) 2,561 10.4 -18.1°
Reaches altitude 10° 05:51:16 10° 20° (NNE) 1,684 9.5 -17.7°
Maximum altitude 05:54:51 58° 101° (E) 583 7.2 -17.2°
Drops below altitude 10° 05:58:27 10° 181° (S) 1,695 9.4 -16.7°
Sets 06:00:34 0° 185° (S) 2,580 10.3 -16.3°
